www.pogodaiklimat.ru

Погода и климат >> Архив погоды >> Саудовская Аравия >> Эль-Хуфуф


ПОГОДА в Эль-Хуфуфе

  • Прогноз погоды в Эль-Хуфуфе
  • Монитор погоды в Эль-Хуфуфе

АРХИВ ПОГОДЫ в Эль-Хуфуфе

Время (UTC), дата Ветер
(напр.,м/с)
 
Видим.   Явления Облачность Т
(С)
Тd
(С)
f
(%)
Тe
(С)
Тes
(С)
Комфортность P
(гПа)
Po
(гПа)
Тmin
(С)
Tmax
(С)
R
(мм)
R24
(мм)
S
(см)
15 20.06 С 9 7000 м пыльный позёмок ясно +40.4 +1.0 9 +37 +37 очень
жарко
998.2 978.9
18 20.06 СЗ 4 10 км ясно +34.5 +4.0 15 +32 +32 жарко 1000.8 981.5 +42.7
21 20.06 СЗ 3 10 км ясно +30.0 +6.0 22 +29 +29 жарко 1000.5 981.2
00 21.06 СЗ 6 10 км ясно +29.7 +5.0 21 +28 +28 жарко 1000.2 980.9
03 21.06 СЗ 6 10 км 3/0
[Ci sp]
+29.5 -2.0 13 +26 +27 жарко 1001.8 982.4
06 21.06 СЗ 9 10 км ясно +37.7 +4.0 12 +35 +36 очень
жарко
1002.5 983.1 +28.5
09 21.06 С 11 10 км ясно +40.9 +3.0 10 +38 +38 очень
жарко
1000.9 981.6
12 21.06 С 8 8000 м пыльный позёмок ясно +42.2 +4.0 10 +39 +41 очень
жарко
999.3 980.0
15 21.06 СЗ 5 10 км ясно +40.4 +3.0 10 +37 +37 очень
жарко
999.1 979.8
18 21.06 С 3 10 км ясно +34.5 +5.0 16 +32 +32 жарко 1000.6 981.3 +42.5
21 21.06 З 2 10 км ясно +29.4 +7.0 24 +28 +28 жарко 1000.4 981.1
00 22.06 З 5 10 км ясно +28.5 +6.0 24 +27 +27 жарко 999.6 980.3
03 22.06 З 7 10 км ясно +28.7 +7.0 25 +28 +28 жарко 1001.4 981.9
06 22.06 СЗ 6 10 км ясно +37.3 +4.0 13 +34 +40 очень
жарко
1001.9 982.5 +27.0
09 22.06 С 8 10 км ясно +40.8 +4.0 11 +38 +42 очень
жарко
1001.0 981.6
12 22.06 С 6 10 км ясно +42.1 +3.0 9 +39 +44 очень
жарко
999.9 980.5
15 22.06 СВ 4 10 км ясно +39.4 +8.0 15 +37 +37 очень
жарко
999.8 980.4
18 22.06 СВ 5 10 км ясно +34.1 +15.0 32 +36 +36 душно 1001.4 981.9 +42.5
21 22.06 СЗ 2 10 км ясно +29.7 +16.0 44 +33 +33 душно 1001.1 981.7
00 23.06 З 3 10 км ясно +27.5 +15.0 46 +30 +30 жарко 1000.3 980.9
03 23.06 СЗ 3 10 км ясно +27.3 +15.0 47 +30 +31 душно 1001.9 982.3
06 23.06 С 4 10 км ясно +36.0 +8.0 18 +34 +45 очень
жарко
1002.4 983.0 +26.3
09 23.06 СВ 2 10 км ясно +40.1 +6.0 13 +37 +61 опасность
солнечного
удара
1001.4 982.0 +26.3
12 23.06 штиль 0 10 км ясно +42.8 +6.0 11 +40 +55 опасность
солнечного
удара
1000.3 980.9
15 23.06 штиль 0 10 км ясно +42.0 +4.0 10 +39 +39 очень
жарко
999.9 980.6
18 23.06 СВ 4 10 км ясно +36.7 +14.0 26 +37 +37 очень
жарко
1001.2 982.0 +43.4
21 23.06 СВ 2 10 км ясно +32.9 +16.0 36 +35 +35 душно 1001.3 982.1
00 24.06 штиль 0 10 км ясно +29.8 +15.0 41 +32 +32 душно 1000.7 981.4
03 24.06 СВ 2 7000 м мгла ясно +31.6 +16.0 39 +34 +36 душно 1001.9 982.6
06 24.06 З 3 10 км ясно +38.6 +15.0 25 +40 +51 опасность
солнечного
удара
1002.8 983.5 +28.2
09 24.06 СЗ 2 10 км ясно +43.1 +6.0 11 +40 +62 опасность
солнечного
удара
1001.5 982.2
12 24.06 СЗ 4 10 км ясно +45.5 +5.0 9 +43 +50 опасность
перегрева
1000.1 980.9
15 24.06 СЗ 2 10 км ясно +43.8 +5.0 10 +41 +41 опасность
перегрева
1000.1 981.0
18 24.06 СЗ 3 10 км ясно +37.4 +4.0 13 +34 +34 очень
жарко
1001.4 982.3 +46.4
21 24.06 З 5 10 км ясно +35.0 +3.0 13 +32 +32 жарко 1001.0 981.9
00 25.06 З 2 10 км ясно +31.7 +3.0 16 +29 +29 жарко 1000.5 981.3
03 25.06 СЗ 5 10 км ясно +32.3 +2.0 15 +29 +30 жарко 1001.4 982.1
06 25.06 СЗ 4 10 км ясно +40.8 +3.0 10 +38 +47 очень
жарко
1002.7 983.5 +31.2
09 25.06 С 5 10 км ясно +45.5 +3.0 8 +42 +55 опасность
перегрева
1001.6 982.5
12 25.06 С 6 10 км ясно +47.5 +1.0 6 +44 +48 опасность
перегрева
999.6 980.5
15 25.06 С 7 10 км ясно +45.4 +2.0 7 +42 +42 опасность
перегрева
999.8 980.8
18 25.06 С 2 10 км ясно +38.3 +3.0 11 +35 +35 очень
жарко
1001.6 982.6 +48.0
21 25.06 С 2 10 км ясно +34.8 +2.0 13 +32 +32 жарко 1000.7 981.7
00 26.06 СЗ 5 10 км ясно +33.0 +2.0 14 +30 +30 жарко 1000.2 981.2
03 26.06 СЗ 5 10 км 5/0
[Ac trans]
+35.0 +1.0 12 +32 +32 жарко 1001.7 982.6
06 26.06 С 9 10 км ясно +42.1 +4.0 10 +39 +41 очень
жарко
1002.6 983.4 +31.3
09 26.06 С 9 10 км ясно +45.7 +2.0 7 +42 +44 опасность
перегрева
1001.5 982.4
12 26.06 С 9 8000 м пыльный позёмок ясно +47.2 +1.0 6 +44 +45 опасность
перегрева
999.3 980.3
15 26.06 СВ 4 7000 м пыль ясно +43.8 +1.0 7 +40 +40 очень
жарко
999.3 980.3
18 26.06 СЗ 2 10 км ясно +36.0 +1.0 11 +32 +32 жарко 1000.3 981.2 +47.5
21 26.06 З 3 10 км ясно +33.3 -1.0 11 +30 +30 жарко 999.3 980.2
00 27.06 З 4 10 км ясно +32.7 -2.0 11 +29 +29 жарко 998.7 979.7
03 27.06 СЗ 4 10 км ясно +32.6 -2.0 11 +29 +30 жарко 999.4 980.2
06 27.06 СЗ 4 10 км ясно +44.6 0.0 6 +41 +50 опасность
перегрева
999.0 979.9 +32.0
09 27.06 С 5 10 км ясно +47.5 -3.0 4 +43 +54 опасность
перегрева
997.5 978.5

 

Местоположение метеостанции Эль-Хуфуф (Саудовская Аравия): широта 25.30 долгота 49.48 высота над уровнем моря 178 м.

В архиве по умолчанию представлена погода в Эль-Хуфуфе за последнюю неделю. Архивные данные за месяц целиком и за предыдущие месяцы, начиная с января 2011 года, Вы можете получить, выбрав интересующий диапазон дат из раскрывающегося списка и нажав кнопку "Ввод!".


*Определитесь, кто Вы:
робот инопланетянин человек

Внимание! Время в таблицах - всемирное. Для получения местного времени необходимо прибавить поправку, которая равна 3 ч.

Смотрите также архив погоды в соседних городах и на ближайших метеорологических станциях:

Погода в Дахране (Саудовская Аравия) (128 км)
Погода в Духане (Катар) (128 км)
Погода в Эд-Даммаме (Саудовская Аравия) (132 км)
Погода в Абу Самба (Катар) (148 км)
Погода в Бахрейне (Бахрейн) (159 км)
Погода в Дохе (Катар) (210 км)
Погода в Доха порту (Катар) (211 км)
Погода в Аэропорту Хамад (Катар) (214 км)
Погода в Аэропорту Король Халид (Саудовская Аравия) (281 км)
Погода в Нувасибе (Кувейт) (363 км)

Пояснения к столбцам:

Ветер - указаны скорость ветра в м/с - средняя за 10 мин, порывы в срок и между сроками (в фигурных скобках) и направление, откуда дует ветер: С - северный, СВ - северо-восточный, В - восточный, ЮВ - юго-восточный, Ю - южный, ЮЗ - юго-западный, З - западный, СЗ - северо-западный.
Видимость - горизонтальная дальность видимости в метрах или километрах. При видимости от 1 до 10 км при отсутствии осадков обычно наблюдается дымка, при ухудшении видимости до 1 км и менее - туман. В сухую погоду видимость может ухудшаться дымом, пылью или мглою.
Явления - указаны атмосферные явления, наблюдавшиеся в срок или в последний час перед сроком; фигурными скобками обозначены явления, наблюдавшиеся между сроками (за 1-3 часа до срока); квадратными скобками обозначены град или гололедные отложения с указанием их диаметра в мм.
Облачность - указаны через наклонную черту общая и нижняя облачность в баллах и высота нижней границы облаков в метрах; квадратными скобками обозначены формы облаков: Ci - перистые, Cs - перисто-слоистые, Cc - перисто-кучевые, Ac - высококучевые, As - высокослоистые, Sc - слоисто-кучевые, Ns - слоисто-дождевые, Cu - кучевые, Cb - кучево-дождевые. Подробнее классификацию облаков см. в Атласе облаков (PDF).
T - Температура воздуха - температура, измеренная на высоте 2 м над землей.
Td - Температура точки росы - температура, при понижении до которой содержащийся в воздухе водяной пар достигнет насыщения.
f - Относительная влажность воздуха - влажноcть воздуха, измеренная на высоте 2 м над землей.
Te - Эффективная температура - температура, которую ощущает одетый по сезону человек в тени. Характеристика душности погоды. При расчете учитывается влияние влажности воздуха и скорости ветра на теплоощущения человека.
Tes - Эффективная температура на солнце - температура, которую ощущает человек, с поправкой на солнечный нагрев. Характеристика знойности погоды. Зависит от высоты солнца над горизонтом, облачности и скорости ветра. Ночью, в пасмурную погоду, а также при ветре 12 м/с и более поправка равна нулю.
P - Атмосферное давление - приведенное к уровню моря атмосферное давление.
Po - Атмосферное давление - измеренное на уровне метеостанции атмосферное давление.
Tmin - Минимальная температура - минимум температуры воздуха на высоте 2 м над землей.
Tmax - Максимальная температура - максимум температуры воздуха на высоте 2 м над землей.
R - Количество осадков - Количество выпавших осадков за период времени, мм. При наведении курсора мыши на число - период времени, за который выпало указанное количество осадков.
R24 - Количество осадков - Количество выпавших осадков за 24 часа, мм.
S - Снежный покров - Высота снежного покрова, см. При наведении курсора мыши на число - состояние снежного покрова и степень покрытия местности в баллах.